Time,TemperatureF,DewpointF,PressureIn,WindDirection,WindDirectionDegrees,WindSpeedMPH,WindSpeedGustMPH,Humidity,HourlyPrecipIn,Conditions,Clouds,dailyrainin,SoftwareType,DateUTC
2013-08-01 00:01:00,57.8,52.1,29.95,North,0,0.0,0.0,81,0.00,,,0.00,WUHU216HW,2013-08-01 05:01:00,
2013-08-01 00:11:00,57.8,52.1,29.95,North,0,0.0,0.0,81,0.00,,,0.00,WUHU216HW,2013-08-01 05:11:00,
2013-08-01 00:21:00,57.8,52.1,29.94,North,0,0.0,0.0,81,0.00,,,0.00,WUHU216HW,2013-08-01 05:21:00,
2013-08-01 00:31:00,57.5,51.9,29.94,North,0,0.0,0.0,81,0.00,,,0.00,WUHU216HW,2013-08-01 05:31:00,
2013-08-01 00:41:00,57.0,51.5,29.94,North,0,0.0,0.0,81,0.00,,,0.00,WUHU216HW,2013-08-01 05:41:00,
2013-08-01 00:52:00,56.9,51.3,29.94,North,0,0.0,0.0,81,0.00,,,0.00,WUHU216HW,2013-08-01 05:52:00,
2013-08-01 01:02:00,56.7,51.1,29.94,North,0,0.0,0.0,81,0.00,,,0.00,WUHU216HW,2013-08-01 06:02:00,
2013-08-01 01:12:00,56.7,51.1,29.94,North,0,0.0,0.0,81,0.00,,,0.00,WUHU216HW,2013-08-01 06:12:00,
2013-08-01 01:22:00,56.7,51.1,29.94,North,0,0.0,0.0,81,0.00,,,0.00,WUHU216HW,2013-08-01 06:22:00,
2013-08-01 01:32:00,56.7,51.1,29.94,North,0,0.0,0.0,81,0.00,,,0.00,WUHU216HW,2013-08-01 06:32:00,
2013-08-01 01:42:00,56.5,51.0,29.94,North,0,0.0,0.0,81,0.00,,,0.00,WUHU216HW,2013-08-01 06:42:00,
2013-08-01 01:52:00,56.4,50.8,29.93,North,0,0.0,0.0,81,0.00,,,0.00,WUHU216HW,2013-08-01 06:52:00,
2013-08-01 02:02:00,56.2,50.6,29.93,North,0,0.0,0.0,81,0.00,,,0.00,WUHU216HW,2013-08-01 07:02:00,
2013-08-01 02:12:00,56.0,50.7,29.93,North,0,0.0,0.0,82,0.00,,,0.00,WUHU216HW,2013-08-01 07:12:00,
2013-08-01 02:22:00,56.4,50.8,29.93,North,0,0.0,0.0,81,0.00,,,0.00,WUHU216HW,2013-08-01 07:22:00,
2013-08-01 02:32:00,56.4,50.8,29.93,North,0,0.0,0.0,81,0.00,,,0.00,WUHU216HW,2013-08-01 07:32:00,
2013-08-01 02:42:00,56.2,50.6,29.93,North,0,0.0,0.0,81,0.00,,,0.00,WUHU216HW,2013-08-01 07:42:00,
2013-08-01 02:52:00,56.0,50.4,29.93,North,0,0.0,0.0,81,0.00,,,0.00,WUHU216HW,2013-08-01 07:52:00,
2013-08-01 03:02:00,56.0,50.1,29.93,North,0,0.0,0.0,80,0.00,,,0.00,WUHU216HW,2013-08-01 08:02:00,
2013-08-01 03:12:00,55.7,50.1,29.93,SW,235,0.4,0.7,81,0.00,,,0.00,WUHU216HW,2013-08-01 08:12:00,
2013-08-01 03:22:00,55.7,50.1,29.93,WSW,241,0.8,1.1,81,0.00,,,0.00,WUHU216HW,2013-08-01 08:22:00,
2013-08-01 03:32:00,55.7,50.1,29.93,SW,233,0.7,1.1,81,0.00,,,0.00,WUHU216HW,2013-08-01 08:32:00,
2013-08-01 03:42:00,55.7,50.1,29.93,WSW,248,0.2,0.2,81,0.00,,,0.00,WUHU216HW,2013-08-01 08:42:00,
2013-08-01 03:52:00,55.5,49.9,29.93,WSW,243,1.0,1.6,81,0.00,,,0.00,WUHU216HW,2013-08-01 08:52:00,
2013-08-01 04:02:00,55.5,49.6,29.93,SW,225,1.1,1.8,80,0.00,,,0.00,WUHU216HW,2013-08-01 09:02:00,
2013-08-01 04:13:00,55.7,49.8,29.94,SW,230,1.1,2.0,80,0.00,,,0.00,WUHU216HW,2013-08-01 09:13:00,
2013-08-01 04:23:00,55.8,49.9,29.93,WSW,239,0.9,1.8,80,0.00,,,0.00,WUHU216HW,2013-08-01 09:23:00,
2013-08-01 04:33:00,55.8,49.9,29.93,SW,230,0.5,0.7,80,0.00,,,0.00,WUHU216HW,2013-08-01 09:33:00,
2013-08-01 04:44:00,56.0,50.1,29.93,SSW,203,0.4,0.4,80,0.00,,,0.00,WUHU216HW,2013-08-01 09:44:00,
2013-08-01 04:54:00,55.7,49.8,29.93,WSW,238,0.9,1.3,80,0.00,,,0.00,WUHU216HW,2013-08-01 09:54:00,
2013-08-01 05:04:00,55.7,49.8,29.93,SSW,203,0.8,1.1,80,0.00,,,0.00,WUHU216HW,2013-08-01 10:04:00,
2013-08-01 05:14:00,55.5,49.6,29.93,North,0,0.0,0.0,80,0.00,,,0.00,WUHU216HW,2013-08-01 10:14:00,
2013-08-01 05:24:00,55.0,49.5,29.93,North,0,0.0,0.0,81,0.00,,,0.00,WUHU216HW,2013-08-01 10:24:00,
2013-08-01 05:34:00,55.0,49.5,29.93,SSE,158,0.4,0.4,81,0.00,,,0.00,WUHU216HW,2013-08-01 10:34:00,
2013-08-01 05:44:00,54.9,49.3,29.93,WNW,285,0.9,1.3,81,0.00,,,0.00,WUHU216HW,2013-08-01 10:44:00,
2013-08-01 05:54:00,55.0,49.5,29.93,WNW,300,0.4,0.4,81,0.00,,,0.00,WUHU216HW,2013-08-01 10:54:00,
2013-08-01 06:05:00,55.3,49.4,29.93,West,270,0.4,0.4,80,0.00,,,0.00,WUHU216HW,2013-08-01 11:05:00,
2013-08-01 06:15:00,55.5,49.6,29.94,North,0,0.0,0.0,80,0.00,,,0.00,WUHU216HW,2013-08-01 11:15:00,
2013-08-01 06:25:00,55.8,49.9,29.94,NNW,338,0.8,1.1,80,0.00,,,0.00,WUHU216HW,2013-08-01 11:25:00,
2013-08-01 06:35:00,56.4,50.8,29.94,North,0,0.0,0.0,81,0.00,,,0.00,WUHU216HW,2013-08-01 11:35:00,
2013-08-01 06:46:00,57.0,51.5,29.95,North,0,0.0,0.0,81,0.00,,,0.00,WUHU216HW,2013-08-01 11:46:00,
2013-08-01 06:56:00,58.2,52.2,29.95,NNW,338,0.2,0.2,80,0.00,,,0.00,WUHU216HW,2013-08-01 11:56:00,
2013-08-01 07:06:00,58.9,52.9,29.95,NNW,338,0.4,0.4,80,0.00,,,0.00,WUHU216HW,2013-08-01 12:06:00,
2013-08-01 07:17:00,60.0,54.0,29.95,WSW,252,0.8,1.6,80,0.00,,,0.00,WUHU216HW,2013-08-01 12:17:00,
2013-08-01 07:27:00,60.9,54.5,29.95,WSW,243,1.2,2.2,79,0.00,,,0.00,WUHU216HW,2013-08-01 12:27:00,
2013-08-01 07:37:00,61.8,55.4,29.95,NW,305,2.6,3.4,79,0.00,,,0.00,WUHU216HW,2013-08-01 12:37:00,
2013-08-01 07:47:00,63.4,57.3,29.96,NNW,343,2.2,3.8,80,0.00,,,0.00,WUHU216HW,2013-08-01 12:47:00,
2013-08-01 07:57:00,63.4,57.3,29.95,NNW,330,1.8,2.9,80,0.00,,,0.00,WUHU216HW,2013-08-01 12:57:00,
2013-08-01 08:08:00,64.8,58.7,29.96,NW,321,1.9,4.0,80,0.00,,,0.00,WUHU216HW,2013-08-01 13:08:00,
2013-08-01 08:18:00,65.3,58.2,29.96,NW,326,1.7,2.5,77,0.00,,,0.00,WUHU216HW,2013-08-01 13:18:00,
2013-08-01 08:28:00,66.8,59.2,29.96,NW,317,1.7,2.5,76,0.00,,,0.00,WUHU216HW,2013-08-01 13:28:00,
2013-08-01 08:38:00,66.8,58.1,29.96,NNW,332,1.6,3.1,73,0.00,,,0.00,WUHU216HW,2013-08-01 13:38:00,
2013-08-01 21:14:00,62.5,52.5,29.92,North,0,0.0,0.0,69,0.00,,,0.00,WUHU216HW,2013-08-02 02:14:00,
2013-08-01 21:24:00,62.0,52.5,29.92,North,0,0.0,0.0,70,0.00,,,0.00,WUHU216HW,2013-08-02 02:24:00,
2013-08-01 21:34:00,61.8,52.6,29.92,WSW,248,0.4,0.4,71,0.00,,,0.00,WUHU216HW,2013-08-02 02:34:00,
2013-08-01 21:44:00,61.4,52.2,29.92,North,0,0.0,0.0,71,0.00,,,0.00,WUHU216HW,2013-08-02 02:44:00,
2013-08-01 21:54:00,61.0,52.3,29.92,North,0,0.0,0.0,72,0.00,,,0.00,WUHU216HW,2013-08-02 02:54:00,
2013-08-01 22:05:00,60.7,51.9,29.92,North,0,0.0,0.0,72,0.00,,,0.00,WUHU216HW,2013-08-02 03:05:00,
2013-08-01 22:15:00,60.2,51.7,29.92,North,0,0.0,0.0,73,0.00,,,0.00,WUHU216HW,2013-08-02 03:15:00,
2013-08-01 22:25:00,60.0,51.6,29.91,North,0,0.0,0.0,73,0.00,,,0.00,WUHU216HW,2013-08-02 03:25:00,
2013-08-01 22:35:00,59.8,51.7,29.91,North,0,0.0,0.0,74,0.00,,,0.00,WUHU216HW,2013-08-02 03:35:00,
2013-08-01 22:53:00,59.5,51.5,29.92,North,0,0.0,0.0,74,0.00,,,0.00,WUHU216HW,2013-08-02 03:53:00,
2013-08-01 23:07:00,59.3,51.9,29.91,SSE,147,0.3,0.4,76,0.00,,,0.00,WUHU216HW,2013-08-02 04:07:00,
2013-08-01 23:17:00,59.3,51.9,29.90,North,0,0.0,0.0,76,0.00,,,0.00,WUHU216HW,2013-08-02 04:17:00,
2013-08-01 23:27:00,58.9,51.5,29.90,North,0,0.0,0.0,76,0.00,,,0.00,WUHU216HW,2013-08-02 04:27:00,
2013-08-01 23:37:00,58.7,51.4,29.90,North,0,0.0,0.0,76,0.00,,,0.00,WUHU216HW,2013-08-02 04:37:00,
2013-08-01 23:46:00,58.5,51.5,29.90,North,0,0.0,0.0,77,0.00,,,0.00,WUHU216HW,2013-08-02 04:46:00,
2013-08-01 23:56:00,58.2,51.5,29.90,North,0,0.0,0.0,78,0.00,,,0.00,WUHU216HW,2013-08-02 04:56:00,